Other Public Products
Issued by NWS Grand Forks, ND

Home | Current Version | Previous Version | Text Only | Print | Product List | Glossary Off
Versions: 1 2 3 4 5 6 7 8 9 10 11 12 13 14 15 16 17 18 19 20 21 22 23 24 25 26 27 28 29 30 31 32 33 34 35 36 37 38 39 40 41 42 43 44 45 46 47 48 49 50

711
FPUS83 KFGF 052131
OPUFGF
PRAIRIE TO PINES WEATHER ROUNDUP
NATIONAL WEATHER SERVICE EASTERN NORTH DAKOTA/GRAND FORKS ND
400 PM CDT THU MAY 05 2016

 **SATELLITE DATA USED TO AUGMENT SKY COVER AT AUTOMATED STATIONS**
 *****  WEATHER ACROSS EASTERN NORTH DAKOTA  *****

CITY           SKY/WX    TMP DP  RH WIND       PRES   REMARKS
GRAND FORKS    MOSUNNY   92  38  15 W18G25    29.74F
GRAND FORKS AF SUNNY     91  37  15 W14G26    29.76S
GRAND CITY NWS NOT AVBL
BUXTON           N/A     93  40  16 W13G24      N/A
DEVILS LAKE    SUNNY     87  40  19 SW9       29.79F
FARGO          SUNNY     90  36  14 SW20      29.79F
WAHPETON ARPT  CLEAR     88  30  12 W15G28    29.83F
$$

 *****  WEATHER ACROSS CENTRAL AND WESTERN NORTH DAKOTA  *****

CITY           SKY/WX    TMP DP  RH WIND       PRES   REMARKS
JAMESTOWN      SUNNY     87  40  19 SW21G26   29.81F
BISMARCK       SUNNY     87  45  23 S6G16     29.82F
MINOT          SUNNY     94  34  12 SW10      29.76F
MINOT AFB      SUNNY     89  37  15 W12       29.74F
GARRISON         N/A     89  40  17 SW9       29.80F
WILLISTON      CLOUDY    89  39  17 SW12      29.78F
DICKINSON      SUNNY     84  35  17 MISG      29.83F
HETTINGER      SUNNY     83  39  21 S5        29.88F
$$

 *****  OTHER OBSERVATIONS NORTHEAST NORTH DAKOTA  *****

CITY           SKY/WX    TMP DP  RH WIND       PRES   REMARKS
WALHALLA       FAIR      91  39  16 W10G16    29.70F
LANGDON        FAIR      90  37  15 SW14G25   29.76F
CAVALIER       FAIR      91  39  16 W16G24    29.70F
GRAFTON        FAIR      90  45  20 W15G22    29.73F
CANDO          FAIR      90  37  15 W16G22    29.78F
FORT TOTTEN      N/A     88  36  16 SW10      29.95S
ROLLA            N/A     88  36  15 SW15G24   29.77F
RUGBY          FAIR      90  39  17 SW14G26   29.76F
 ***** THE ABOVE OBSERVATIONS ARE NON NWS ARE NOT QUALITY
        CONTROLLED AND MAY MIS-REPORT RAIN FOR SNOW...
$$

 *****  OTHER OBSERVATIONS SOUTHEAST NORTH DAKOTA *****

CITY           SKY/WX    TMP DP  RH WIND       PRES   REMARKS
COOPERSTOWN    NOT AVBL
VALLEY CITY    FAIR      88  39  18 W16G23    29.83F
OAKES            N/A    N/A N/A N/A MISG        N/A
GWINNER        FAIR      90  37  15 SW14      29.84F
SHEYENNE NWR     N/A     89  37  16 SW14      29.95S
BUFFALO          N/A     90  35  14 W13         N/A
WYNDMERE         N/A     90  36  14 SW13        N/A
 ***** THE ABOVE OBSERVATIONS ARE NON NWS ARE NOT QUALITY
       CONTROLLED AND MAY MIS-REPORT RAIN FOR SNOW...
$$

  *****  WEATHER ACROSS NORTHERN MINNESOTA  *****

CITY           SKY/WX    TMP DP  RH WIND       PRES   REMARKS
FLAG ISLAND    MOSUNNY   84  36  17 W22       29.67F
WARROAD        CLOUDY    90  46  22 W16G23    29.69F
ROSEAU         SUNNY     93  30  10 W14G23    29.70S
HALLOCK        SUNNY     93  21   7 W15G23    29.69S
THF RVR FALLS  SUNNY     90  36  14 SW18G24   29.76F
HALSTAD          N/A     91  30  11 SW18        N/A
FOSSTON        SUNNY     90  34  13 W17G32    29.79F
BAUDETTE       MOSUNNY   89  42  19 NW10      29.71F
WASKISH        SUNNY     84  46  26 SW15      29.75F
CROOKSTON      SUNNY     90  36  14 W13G21    29.76F
$$
  *****  WEATHER ACROSS CENTRAL AND WEST MINNESOTA  *****

CITY           SKY/WX    TMP DP  RH WIND       PRES   REMARKS
BEMIDJI        SUNNY     86  42  21 W13G21    29.80F
PARK RAPIDS    SUNNY     86  42  21 W18G25    29.85F
WADENA         SUNNY     84  45  24 SW14G23   29.86F
DETROIT LAKES  SUNNY     86  37  17 SW14G22   29.84F
MOORHEAD       SUNNY     91  34  13 SW14G21   29.80F
FERGUS FALLS   SUNNY     86  43  22 W17       29.81F
ELBOW LAKE     FAIR      85  42  22 SW15G23   29.87F
MORRIS MN      SUNNY     84  43  23 SW10G20   29.88F
STAPLES        SUNNY     82  39  21 SW15G22   29.87F
WHEATON        SUNNY     88  45  22 SW14      29.87F
$$
  *****  WEATHER ELSEWHERE ACROSS MINNESOTA  *****

CITY           SKY/WX    TMP DP  RH WIND       PRES   REMARKS
DULUTH         SUNNY     75  38  26 SW13G23   29.86F
INTRNTL FALLS  SUNNY     85  45  24 W10G22    29.73F
ELY            SUNNY     79  36  21 SW14      29.79F
CLOQUET        SUNNY     79  30  17 SW18      29.86F
BRAINERD       SUNNY     81  38  21 SW20      29.88F
HIBBING        NOT AVBL
ALEXANDRIA     SUNNY     83  42  23 SW13      29.91F
SAINT CLOUD    NOT AVBL
MINNEAPOLIS    MOSUNNY   75  33  21 SW10G17   29.95F
$$

  *****  WEATHER ACROSS SOUTH DAKOTA  *****

CITY           SKY/WX    TMP DP  RH WIND       PRES   REMARKS
SIOUX FALLS    MOSUNNY   75  49  39 S10       29.98F
BROOKINGS      SUNNY     80  42  25 SW14G21   29.95F
WATERTOWN      SUNNY     82  43  25 SW15      29.93F
HURON          SUNNY     83  42  23 S16       29.91F
SISSETON         N/A     85  41  21 W13G22    29.87F
ABERDEEN       SUNNY     89  35  14 SW18G25   29.86F
MITCHELL       SUNNY     82  47  29 S12       29.94F
PIERRE         SUNNY     87  49  26 S21       29.85F
MOBRIDGE       SUNNY     88 N/A N/A S18G25    29.82F
RAPID CITY     MOSUNNY   82  45  27 SE10      29.90F
$$

  *****  SOME WEATHER IN NEARBY STATES *****

CITY           SKY/WX    TMP DP  RH WIND       PRES   REMARKS
GLASGOW MT     MOSUNNY   85  41  21 NW10      29.79F
GREAT FALLS MT PTSUNNY   78  41  26 NW7       29.87F
CHEYENNE WY    PTSUNNY   76  25  15 N6        30.09F
SCOTTSBLUFF NE PTSUNNY   85  36  17 W5        29.97F
OMAHA NE       MOSUNNY   76  40  27 NE5       30.03F
DES MOINES IA  MOSUNNY   72  30  21 VRB5      30.04F
DAVENPORT IA   SUNNY     66  34  30 NW7       30.02F
CHICAGO IL     MOSUNNY   60  41  49 E9        29.98F
EAU CLAIRE WI  CLOUDY    66  33  29 SW8       29.97F
LA CROSSE WI   SUNNY     70  33  25 CALM      29.98F
$$

  *****  SOME NATIONAL WEATHER *****

CITY           SKY/WX    TMP DP  RH WIND       PRES   REMARKS
LA GUARDIA NY  CLOUDY    57  46  66 NE16      29.64R
RALEIGH NC     PTSUNNY   55  51  86 N9G22     29.59S
ATLANTA GA     CLOUDY    63  39  41 W21G30    29.74F
NEW ORLEANS LA SUNNY     80  49  33 N12G21    29.89F
OKLAHOMA CITY  MOSUNNY   80  40  23 VRB3      30.05F
ALBUQUERQUE NM MOSUNNY   81  23  11 CALM      30.08F
SALT LAKE CITY CLOUDY    83  29  14 S20G26    29.84F
LOS ANGELES CA PTSUNNY   66  48  52 W9        29.92F
BOISE ID       MOSUNNY   74  45  35 CALM      29.78F
SEATTLE WA     NOT AVBL
$$

*** WEATHER ACROSS MANITOBA...SASKATCHEWAN AND ONTARIO ***
                ***ONTARIO***

CITY           SKY/WX    TMP DP  RH WIND       PRES   REMARKS
GERALDTON      PTSUNNY   64  30  27 S17G25    29.78S
THUNDER BAY    PTSUNNY   59  39  47 NE12      29.79F
SIOUX LOOKOUT  CLOUDY    79  43  27 S9        29.70S
TORONTO        PTSUNNY   55  48  76 VRB2      29.80S
BIG TROUT LK   SUNNY     55  34  44 NE8       29.77R
PICKLE LAKE    MOSUNNY   73  41  31 VRB5      29.69S
DRYDEN         SUNNY     81  41  24 W20G25    29.70F
KENORA         PTSUNNY   84  48  28 SW10      29.70F
$$
                *** MANITOBA***

CITY           SKY/WX    TMP DP  RH WIND       PRES   REMARKS
BRANDON        PTSUNNY   93  36  13 SW14G24   29.70F
DAUPHIN        SUNNY     91  36  14 W14G29    29.62F
ISLAND LAKE    CLOUDY    68  41  37 E13G20    29.67F
PILOT MOUND      N/A     90  34  13 SW14G22     N/A
THE PAS        CLOUDY    70  43  37 NW9       29.63R
THOMPSON       CLOUDY    54  27  35 E13G22    29.75F
WINNIPEG       MOSUNNY   93  36  13 W9G17     29.66F
LYNN LAKE      PTSUNNY   52  34  50 NE6       29.76F
CHURCHILL      CLOUDY    25  19  80 NE9       30.01R WCI  15
GILLAM         PTSUNNY   36  18  48 E12G18    29.87F
$$
                ***SASKATCHEWAN***

CITY           SKY/WX    TMP DP  RH WIND       PRES   REMARKS
ESTEVAN        CLOUDY    90  37  15 W18G32    29.73F
KINDERSLEY     PTSUNNY   73  36  25 N25G31    29.83R SMOKE
LLOYDMINSTER   CLOUDY    59  37  44 N15G25    29.95R
PRINCE ALBERT  CLOUDY    77  43  29 N20G28    29.72R
REGINA         PTSUNNY   90  37  15 NW20G28   29.70S
YORKTON        MOSUNNY   88  37  16 W13G18    29.67S   C1F1C2F2C3F3C4F4C5F5C6F6C7F7C8F8C9F9CaFaCbFbCcFcCdFdCe!



USA.gov is the U.S. government's official web portal to all federal, state and local government web resources and services.